{"data":{"norad_id":66195,"epoch":"2026-05-24T15:28:44.757408Z","epoch_age_seconds":99742,"freshness":"FRESH","line1":"1 66195U 25243U   26144.64496247  .00024213  00000+0  82714-3 0  9998","line2":"2 66195  53.1589 252.3926 0001282  78.3897 281.7248 15.30193081 32282","mean_motion":15.30193081,"eccentricity":0.0001282,"inclination_deg":53.1589,"raan_deg":252.3926,"arg_perigee_deg":78.3897,"mean_anomaly_deg":281.7248,"bstar":0.00082714,"rev_number":3228,"period_min":94.105771218031,"perigee_km":474.35712600023,"apogee_km":476.11433076779,"semimajor_km":6853.372728384,"source":"CELESTRAK","updated_at":"2026-05-25T13:38:21.122747Z"}}